Tracking 29033 objects as of 22-Jun-2024
HD Live streaming from Space Station
objects crossing your sky now

STARLINK-31362

Track STARLINK-31362 now!
10-day predictions
STARLINK-31362 is classified as:


NORAD ID: 58935
Int'l Code: 2024-027E
Perigee: 488.2 km
Apogee: 489.5 km
Inclination: 53.2 °
Period: 94.2 minutes
Semi major axis: 6859 km
RCS: Unknown
Launch date: February 10, 2024
Source: United States (US)
Launch site: AIR FORCE WESTERN TEST RANGE (AFWTR)
Your satellite tracking list
Your tracking list is empty




NASA's NSSDC Master Catalog

Two Line Element Set (TLE):
1 58935U 24027E   24173.73601100  .00004980  00000-0  19227-3 0  9995
2 58935  53.1595 337.0029 0000970  68.5692 291.5411 15.28029080 21490
Source of the keplerian elements: AFSPC